Home   Weather   Waidhofen an der Thaya   Past weeks

Flag for Austria Past Weather in Waidhofen an der Thaya, Lower Austria, Austria — Yesterday and Last 2 Weeks

Now
42 °F

Fog.


Feels Like: 42 °F
Forecast: 35 / 40 °F
Wind: 1 mph from Northeast

Location: Retz

Current Time: Apr 27, 2017 at 10:45:28 pm

Latest Report: Apr 27, 2017 at 9:00 pm


Visibility: N/A

Pressure: 29.95 "Hg (28.15 "Hg at 506m altitude)

Humidity: 98%

Dew Point: 42 °F

Location of Waidhofen an der ThayaLocation

Past Weather in Waidhofen an der Thaya — Graph

°F

Waidhofen an der Thaya Temperature Yesterday

Maximum temperature yesterday: 49 °F (at 12:00 am)
Minimum temperature yesterday: 42 °F (at 11:00 pm)
Average temperature yesterday: 46 °F

High & Low Weather Summary for the Past Weeks

 TemperatureHumidityPressure
High64 °F (Apr 25, 6:00 pm)98% (Apr 27, 9:00 pm)30.51 "Hg (Apr 27, 9:00 pm)
Low34 °F (Apr 20, 6:00 am)37% (Apr 24, 6:00 pm)29.67 "Hg (Apr 25, 7:00 pm)
Average45 °F69%30.03 "Hg
* Reported Apr 12 9:00 pm — Apr 27 9:00 pm, Waidhofen an der Thaya, Weather by CustomWeather, © 2017

Note: Actual official high and low records may vary slightly from our data, if they occured in-between our weather recording intervals... More about our weather records

Advertising

Waidhofen an der Thaya Weather History for the Previous 24 Hours

Scroll right to see more
 ConditionsComfort  
Time TempWeatherWind HumidityBarometerVisibility
9:00 pm
Thu, Apr 27
42 °FFog.1 mph98%29.95 "HgN/A
8:00 pm42 °FLight rain. Overcast.3 mph97%29.93 "Hg4 mi
7:00 pm43 °FFog.2 mph95%29.94 "HgN/A
6:00 pm43 °FFog.2 mph92%29.96 "HgN/A
5:00 pm44 °FFog.2 mph85%29.95 "HgN/A
4:00 pm45 °FQuite cool.3 mph84%29.95 "HgN/A
3:00 pm45 °FQuite cool.2 mph84%29.94 "HgN/A
2:00 pm44 °FOvercast.2 mph84%29.95 "Hg16 mi
1:00 pm44 °FQuite cool.2 mph87%29.94 "HgN/A
12:00 pm42 °FQuite cool.2 mph88%29.95 "HgN/A
11:00 am40 °FQuite cool.5 mph93%29.94 "HgN/A
10:00 am40 °FFog.5 mph95%29.93 "HgN/A
9:00 am39 °FFog.No wind97%29.92 "HgN/A
8:00 am39 °FLight rain. Overcast.3 mph95%29.90 "Hg5 mi
7:00 am39 °FLight rain. Overcast.6 mph96%29.89 "Hg4 mi
6:00 am39 °FFog.3 mph96%29.88 "HgN/A
5:00 am39 °FChilly.5 mph96%29.88 "HgN/A
4:00 am40 °FFog.5 mph97%29.88 "HgN/A
3:00 am40 °FFog.5 mph95%29.88 "HgN/A
2:00 am40 °FQuite cool.5 mph95%29.89 "HgN/A
1:00 am41 °FQuite cool.5 mph93%29.89 "HgN/A
12:00 am42 °FQuite cool.2 mph92%29.89 "HgN/A
11:00 pm
Wed, Apr 26
42 °FQuite cool.2 mph88%29.90 "HgN/A
10:00 pm43 °FQuite cool.3 mph89%29.89 "HgN/A
Weather by CustomWeather, © 2017

See weather overviewHow to use our weather pages